This demonstration page uses our WeatherBlox Daily Observations layout. Learn more.

Left ArrowRight Arrow

34.74481, -87.66753

Hourly Observations for July 1, 2016

Temp ( °F °C ) Dew Point ( °F °C ) Humidity (%) Winds ( mph kmh ) Pressure ( in mb ) Visibility ( mi km ) Precip ( " mm )
12:53 am 00:53 Clear 65 18.3 62 16.7 90 90 Calm 29.97 1015 10 16 0.00 0.00
1:53 am 01:53 Clear 65 18.3 62 16.7 90 90 Calm 29.95 1014 10 16 0.00 0.00
2:53 am 02:53 Clear 65 18.3 61 16.1 87 87 Calm 29.96 1015 10 16 0.00 0.00
3:53 am 03:53 Clear 65 18.3 61 16.1 87 87 Calm 29.97 1015 10 16 0.00 0.00
4:53 am 04:53 Clear 64 17.8 61 16.1 90 90 Calm 29.98 1015 10 16 0.00 0.00
5:53 am 05:53 Sunny 64 17.8 60 15.6 87 87 Calm 30.00 1016 10 16 0.00 0.00
6:53 am 06:53 Sunny 67 19.4 62 16.7 84 84 Calm 30.01 1016 10 16 0.00 0.00
7:53 am 07:53 Sunny 72 22.2 65 18.3 79 79 Calm 30.02 1017 10 16 0.00 0.00
8:53 am 08:53 Sunny 78 25.6 65 18.3 64 64 SE 3 6 30.03 1017 10 16 0.00 0.00
9:53 am 09:53 Sunny 83 28.3 63 17.2 51 51 W 5 7 30.02 1017 10 16 0.00 0.00
10:53 am 10:53 Sunny 86 30 65 18.3 49 49 W 9 15 30.02 1017 10 16 0.00 0.00
11:53 am 11:53 Sunny 88 31.1 67 19.4 50 50 W 3 6 30.01 1016 10 16 0.00 0.00
12:53 pm 12:53 Sunny 90 32.2 67 19.4 47 47 W 13 20 30.00 1016 10 16 0.00 0.00
1:53 pm 13:53 Sunny 91 32.8 66 18.9 44 44 W 14 22 29.99 1016 10 16 0.00 0.00
2:53 pm 14:53 Partly Cloudy 91 32.8 66 18.9 44 44 NW 10 17 29.98 1015 10 16 0.00 0.00
3:53 pm 15:53 Sunny 93 33.9 66 18.9 41 41 NW 9 15 29.97 1015 10 16 0.00 0.00
4:53 pm 16:53 Sunny 92 33.3 68 20 46 46 WNW 8 13 29.96 1015 10 16 0.00 0.00
5:53 pm 17:53 Sunny 91 32.8 66 18.9 44 44 NNW 7 11 29.96 1015 10 16 0.00 0.00
6:53 pm 18:53 Sunny 89 31.7 67 19.4 48 48 N 7 11 29.97 1015 10 16 0.00 0.00
7:53 pm 19:53 Sunny 84 28.9 68 20 59 59 N 5 7 29.98 1015 10 16 0.00 0.00
8:53 pm 20:53 Clear 83 28.3 69 20.6 63 63 N 6 9 29.98 1015 10 16 0.00 0.00
9:53 pm 21:53 Clear 80 26.7 69 20.6 69 69 N 3 6 30.01 1016 10 16 0.00 0.00
10:53 pm 22:53 Clear 79 26.1 70 21.1 74 74 N 3 6 30.02 1017 10 16 0.00 0.00
11:53 pm 23:53 Clear 79 26.1 69 20.6 72 72 N 5 7 30.03 1017 10 16 0.00 0.00

Powered by AerisWeather